Change the Weather History Date:

Tuesday, October 1, 2013

  Actual Average Record
Temperature  
Mean Temperature 73 °F -  
Max Temperature 96 °F 86 °F 106 °F (1977)
Min Temperature 50 °F 54 °F 41 °F (1963)
Cooling Degree Days 8    
Growing Degree Days 23 (Base 50)    
Moisture  
Dew Point 33 °F    
Average Humidity 29    
Maximum Humidity 55    
Minimum Humidity 10    
Precipitation  
Precipitation 0.00 in - - ()
Sea Level Pressure  
Sea Level Pressure 29.87 in    
Wind  
Wind Speed 6 mph (West)    
Max Wind Speed 14 mph    
Max Gust Speed 23 mph    
Visibility 10 miles    
Events      
Averages and records for this station are not official NWS values.
T = Trace of Precipitation, MM = Missing Value Source: NWS Daily Summary

Daily Weather History Graph

Daily Weather History Graph

Search for Another Location

Airport or City:

Trip Planner

Search our weather history database for the weather conditions in past years. The results will help you decide how hot, cold, wet, or windy it might be!

Date:

Astronomy

Oct. 01, 2013 Rise Set
Actual Time 7:47 AM CDT 7:38 PM CDT
Civil Twilight 7:23 AM CDT 8:02 PM CDT
Nautical Twilight 6:55 AM CDT 8:31 PM CDT
Astronomical Twilight 6:27 AM CDT 8:59 PM CDT
Moon 4:35 AM CDT (10/1) 5:34 PM CDT (10/1)
Length of Visible Light 12h 39m
Length of Day
11h 50m
Waning Crescent, 12% of the Moon is Illuminated
Oct 1
Waning Crescent
Oct 4
New
Oct 11
First Quarter
Oct 18
Full
Oct 26
Last Quarter

Hourly Weather History & Observations

Time (CDT) Temp. Dew Point Humidity Pressure Visibility Wind Dir Wind Speed Gust Speed Precip Events Conditions
12:15 AM 60.8 °F 35.2 °F 38% 29.85 in 10.0 mi SSW 9.2 mph - N/A   Clear
12:35 AM 60.6 °F 35.1 °F 38% 29.85 in 10.0 mi SSW 9.2 mph - N/A   Clear
12:55 AM 59.7 °F 35.2 °F 40% 29.85 in 10.0 mi SSW 9.2 mph - N/A   Clear
1:15 AM 59.5 °F 36.1 °F 42% 29.85 in 10.0 mi SW 5.8 mph - N/A   Clear
1:35 AM 58.1 °F 35.8 °F 43% 29.85 in 10.0 mi WSW 6.9 mph - N/A   Clear
1:55 AM 58.3 °F 35.2 °F 42% 29.85 in 10.0 mi WSW 6.9 mph - N/A   Clear
2:15 AM 58.1 °F 35.1 °F 42% 29.85 in 10.0 mi WSW 6.9 mph - N/A   Clear
2:35 AM 58.3 °F 35.1 °F 42% 29.85 in 10.0 mi WSW 5.8 mph - N/A   Clear
2:55 AM 59.7 °F 35.1 °F 40% 29.85 in 10.0 mi Calm Calm - N/A   Clear
3:15 AM 55.9 °F 34.2 °F 44% 29.85 in 10.0 mi Calm Calm - N/A   Clear
3:35 AM 53.8 °F 35.1 °F 49% 29.85 in 10.0 mi Calm Calm - N/A   Clear
3:55 AM 53.4 °F 35.1 °F 50% 29.85 in 10.0 mi Calm Calm - N/A   Clear
4:15 AM 54.0 °F 34.7 °F 48% 29.85 in 10.0 mi Calm Calm - N/A   Clear
4:35 AM 53.4 °F 35.2 °F 50% 29.85 in 10.0 mi West 4.6 mph - N/A   Clear
4:55 AM 54.0 °F 35.8 °F 50% 29.85 in 10.0 mi WNW 5.8 mph - N/A   Clear
5:15 AM 51.1 °F 34.5 °F 53% 29.85 in 10.0 mi Calm Calm - N/A   Clear
5:35 AM 51.4 °F 34.0 °F 51% 29.86 in 10.0 mi ESE 4.6 mph - N/A   Clear
5:55 AM 52.3 °F 34.7 °F 51% 29.86 in 10.0 mi Calm Calm - N/A   Clear
6:15 AM 54.1 °F 34.9 °F 48% 29.86 in 10.0 mi Calm Calm - N/A   Clear
6:35 AM 50.4 °F 34.9 °F 55% 29.86 in 10.0 mi Calm Calm - N/A   Clear
6:55 AM 50.4 °F 34.9 °F 55% 29.88 in 10.0 mi SSE 3.5 mph - N/A   Clear
7:15 AM 50.2 °F 34.7 °F 55% 29.88 in 10.0 mi Calm Calm - N/A   Clear
7:35 AM 50.5 °F 34.9 °F 55% 29.88 in 10.0 mi SE 3.5 mph - N/A   Clear
7:55 AM 50.7 °F 34.9 °F 55% 29.89 in 10.0 mi Calm Calm - N/A   Clear
8:15 AM 51.3 °F 35.2 °F 54% 29.90 in 10.0 mi Calm Calm - N/A   Clear
8:35 AM 54.3 °F 37.6 °F 53% 29.90 in 10.0 mi Calm Calm - N/A   Clear
8:55 AM 59.0 °F 37.9 °F 46% 29.90 in 10.0 mi Calm Calm - N/A   Clear
9:15 AM 63.3 °F 35.6 °F 36% 29.91 in 10.0 mi Calm Calm - N/A   Clear
9:35 AM 66.9 °F 35.8 °F 32% 29.91 in 10.0 mi WNW 4.6 mph - N/A   Clear
9:55 AM 70.2 °F 36.9 °F 30% 29.91 in 10.0 mi West 5.8 mph - N/A   Clear
10:15 AM 74.5 °F 36.7 °F 25% 29.91 in 10.0 mi West 8.1 mph - N/A   Clear
10:35 AM 79.7 °F 34.0 °F 19% 29.92 in 10.0 mi West 8.1 mph - N/A   Clear
10:55 AM 80.6 °F 33.8 °F 18% 29.92 in 10.0 mi NW 6.9 mph - N/A   Clear
11:15 AM 82.8 °F 33.8 °F 17% 29.91 in 10.0 mi NW 8.1 mph - N/A   Clear
11:35 AM 84.2 °F 34.0 °F 17% 29.91 in 10.0 mi WNW 6.9 mph - N/A   Clear
11:55 AM 87.1 °F 34.5 °F 15% 29.91 in 10.0 mi West 8.1 mph - N/A   Clear
12:15 PM 88.0 °F 34.7 °F 15% 29.91 in 10.0 mi NW 6.9 mph - N/A   Clear
12:35 PM 89.8 °F 34.9 °F 14% 29.90 in 10.0 mi NNW 4.6 mph - N/A   Clear
12:55 PM 89.8 °F 35.4 °F 15% 29.90 in 10.0 mi NNW 4.6 mph - N/A   Clear
1:15 PM 91.0 °F 35.6 °F 14% 29.89 in 10.0 mi NW 5.8 mph - N/A   Clear
1:35 PM 92.3 °F 36.0 °F 14% 29.88 in 10.0 mi NNW 4.6 mph - N/A   Clear
1:55 PM 93.0 °F 36.0 °F 13% 29.88 in 10.0 mi North 5.8 mph - N/A   Clear
2:15 PM 93.9 °F 36.0 °F 13% 29.86 in 10.0 mi Calm Calm - N/A   Clear
2:35 PM 95.0 °F 35.8 °F 13% 29.86 in 10.0 mi NW 6.9 mph - N/A   Clear
2:55 PM 95.0 °F 35.2 °F 12% 29.85 in 10.0 mi Calm Calm - N/A   Clear
3:15 PM 95.5 °F 35.4 °F 12% 29.84 in 10.0 mi North 6.9 mph - N/A   Clear
3:35 PM 95.7 °F 33.3 °F 11% 29.84 in 10.0 mi Calm Calm - N/A   Clear
3:55 PM 96.6 °F 32.7 °F 11% 29.84 in 10.0 mi NW 13.8 mph 21.9 mph N/A   Clear
4:15 PM 96.8 °F 32.2 °F 10% 29.84 in 10.0 mi WSW 13.8 mph 23.0 mph N/A   Clear
4:35 PM 96.3 °F 32.0 °F 10% 29.84 in 10.0 mi West 10.4 mph 15.0 mph N/A   Clear
4:55 PM 95.7 °F 31.3 °F 10% 29.84 in 10.0 mi West 13.8 mph 19.6 mph N/A   Clear
5:15 PM 95.2 °F 30.4 °F 10% 29.84 in 10.0 mi West 11.5 mph 17.3 mph N/A   Clear
5:35 PM 95.0 °F 31.8 °F 11% 29.84 in 10.0 mi West 11.5 mph 18.4 mph N/A   Clear
5:55 PM 94.5 °F 30.6 °F 10% 29.84 in 10.0 mi West 10.4 mph - N/A   Clear
6:15 PM 94.1 °F 31.1 °F 11% 29.84 in 10.0 mi West 9.2 mph - N/A   Clear
6:35 PM 93.2 °F 31.6 °F 11% 29.84 in 10.0 mi West 9.2 mph - N/A   Clear
6:55 PM 91.9 °F 30.7 °F 11% 29.84 in 10.0 mi West 11.5 mph - N/A   Clear
7:15 PM 89.2 °F 30.2 °F 12% 29.84 in 10.0 mi WSW 9.2 mph - N/A   Clear
7:35 PM 85.8 °F 29.5 °F 13% 29.85 in 10.0 mi WSW 9.2 mph - N/A   Clear
7:55 PM 82.4 °F 28.8 °F 14% 29.85 in 10.0 mi WSW 8.1 mph - N/A   Clear
8:15 PM 79.3 °F 28.0 °F 15% 29.86 in 10.0 mi WSW 8.1 mph - N/A   Clear
8:35 PM 76.6 °F 27.5 °F 16% 29.86 in 10.0 mi WSW 8.1 mph - N/A   Clear
8:55 PM 74.3 °F 27.3 °F 18% 29.87 in 10.0 mi West 8.1 mph - N/A   Clear
9:15 PM 71.1 °F 28.2 °F 20% 29.88 in 10.0 mi West 6.9 mph - N/A   Clear
9:35 PM 70.5 °F 29.7 °F 22% 29.88 in 10.0 mi West 8.1 mph - N/A   Clear
9:55 PM 68.9 °F 30.2 °F 24% 29.89 in 10.0 mi West 6.9 mph - N/A   Clear
10:15 PM 66.4 °F 29.8 °F 25% 29.89 in 10.0 mi WSW 8.1 mph - N/A   Clear
10:35 PM 66.6 °F 29.8 °F 25% 29.89 in 10.0 mi WSW 8.1 mph - N/A   Clear
10:55 PM 66.2 °F 30.0 °F 26% 29.89 in 10.0 mi WSW 9.2 mph - N/A   Clear
11:15 PM 66.2 °F 30.0 °F 26% 29.90 in 10.0 mi WSW 8.1 mph - N/A   Clear
11:35 PM 66.2 °F 30.2 °F 26% 29.90 in 10.0 mi WSW 8.1 mph - N/A   Clear
11:55 PM 63.9 °F 31.5 °F 30% 29.90 in 10.0 mi SSW 5.8 mph - N/A   Clear